TimeCDT,TemperatureF,Dew PointF,Humidity,Sea Level PressureIn,VisibilityMPH,Wind Direction,Wind SpeedMPH,Gust SpeedMPH,PrecipitationIn,Events,Conditions,WindDirDegrees,DateUTC
12:15 AM,71.6,62.6,73,30.07,10.0,Calm,Calm,-,N/A,,Clear,0,2013-09-12 05:15:00
12:35 AM,71.6,62.6,73,30.07,10.0,Calm,Calm,-,N/A,,Clear,0,2013-09-12 05:35:00
12:55 AM,69.8,62.6,78,30.07,10.0,SSE,3.5,-,N/A,,Clear,160,2013-09-12 05:55:00
1:15 AM,71.6,62.6,73,30.06,10.0,SSE,3.5,-,N/A,,Clear,150,2013-09-12 06:15:00
1:35 AM,69.8,62.6,78,30.06,10.0,SSE,4.6,-,N/A,,Clear,150,2013-09-12 06:35:00
1:55 AM,69.8,62.6,78,30.06,10.0,SSE,3.5,-,N/A,,Clear,150,2013-09-12 06:55:00
2:15 AM,69.8,62.6,78,30.06,10.0,Calm,Calm,-,N/A,,Clear,0,2013-09-12 07:15:00
2:35 AM,68.0,62.6,83,30.07,10.0,Calm,Calm,-,N/A,,Clear,0,2013-09-12 07:35:00
2:55 AM,69.8,62.6,78,30.06,10.0,Calm,Calm,-,N/A,,Clear,0,2013-09-12 07:55:00
3:15 AM,69.8,62.6,78,30.06,10.0,Calm,Calm,-,N/A,,Clear,0,2013-09-12 08:15:00
3:35 AM,68.0,62.6,83,30.06,10.0,Calm,Calm,-,N/A,,Clear,0,2013-09-12 08:35:00
3:55 AM,68.0,62.6,83,30.06,10.0,Calm,Calm,-,N/A,,Clear,0,2013-09-12 08:55:00
4:15 AM,68.0,62.6,83,30.06,10.0,Calm,Calm,-,N/A,,Clear,0,2013-09-12 09:15:00
4:35 AM,68.0,62.6,83,30.06,10.0,Calm,Calm,-,N/A,,Clear,0,2013-09-12 09:35:00
4:55 AM,68.0,62.6,83,30.06,10.0,Calm,Calm,-,N/A,,Clear,0,2013-09-12 09:55:00
5:15 AM,66.2,62.6,88,30.06,10.0,Calm,Calm,-,N/A,,Clear,0,2013-09-12 10:15:00
5:35 AM,68.0,62.6,83,30.07,10.0,Calm,Calm,-,N/A,,Clear,0,2013-09-12 10:35:00
5:55 AM,68.0,62.6,83,30.07,10.0,Calm,Calm,-,N/A,,Clear,0,2013-09-12 10:55:00
6:17 AM,69.8,64.4,83,30.07,10.0,Calm,Calm,-,N/A,,Mostly Cloudy,0,2013-09-12 11:17:00
6:50 AM,73.4,64.4,73,30.09,10.0,North,9.2,-,N/A,,Mostly Cloudy,350,2013-09-12 11:50:00
7:50 AM,71.6,64.4,78,30.10,7.0,North,5.8,-,N/A,,Mostly Cloudy,360,2013-09-12 12:50:00
8:55 AM,80.6,64.4,58,30.11,7.0,NE,9.2,-,N/A,,Mostly Cloudy,40,2013-09-12 13:55:00
9:50 AM,86.0,64.4,48,30.11,7.0,ENE,5.8,-,N/A,,Mostly Cloudy,70,2013-09-12 14:50:00
10:50 AM,87.8,64.4,46,30.12,10.0,North,5.8,-,N/A,,Mostly Cloudy,10,2013-09-12 15:50:00
11:50 AM,91.4,64.4,41,30.12,10.0,NW,5.8,-,N/A,,Mostly Cloudy,310,2013-09-12 16:50:00
12:50 PM,91.4,62.6,38,30.10,10.0,NNW,9.2,-,N/A,,Mostly Cloudy,330,2013-09-12 17:50:00
1:50 PM,93.2,64.4,38,30.08,7.0,NNE,5.8,-,N/A,,Mostly Cloudy,20,2013-09-12 18:50:00
2:50 PM,91.4,62.6,38,30.06,7.0,NE,11.5,-,N/A,,Overcast,50,2013-09-12 19:50:00
4:50 PM,82.4,69.8,66,30.04,7.0,ENE,18.4,-,N/A,Rain,Light Rain,60,2013-09-12 21:50:00
5:50 PM,80.6,68.0,65,30.04,7.0,NE,15.0,-,N/A,,Mostly Cloudy,40,2013-09-12 22:50:00
7:50 PM,80.6,66.2,61,30.06,7.0,NNE,16.1,-,N/A,,Mostly Cloudy,30,2013-09-13 00:50:00
8:50 PM,78.8,68.0,69,30.07,10.0,NNE,9.2,-,N/A,,Mostly Cloudy,20,2013-09-13 01:50:00
9:15 PM,77.0,68.0,74,30.08,10.0,NE,6.9,-,N/A,,Clear,40,2013-09-13 02:15:00
9:35 PM,77.0,68.0,74,30.08,10.0,NE,4.6,-,N/A,,Clear,40,2013-09-13 02:35:00
9:55 PM,77.0,68.0,74,30.09,10.0,NNE,4.6,-,N/A,,Clear,20,2013-09-13 02:55:00
10:15 PM,77.0,68.0,74,30.08,10.0,NNE,5.8,-,N/A,,Clear,30,2013-09-13 03:15:00
10:35 PM,75.2,68.0,78,30.08,10.0,NNE,4.6,-,N/A,,Clear,30,2013-09-13 03:35:00
10:55 PM,75.2,68.0,78,30.09,10.0,NE,8.1,-,N/A,,Clear,50,2013-09-13 03:55:00
11:15 PM,75.2,68.0,78,30.08,10.0,ENE,9.2,-,N/A,,Clear,60,2013-09-13 04:15:00
11:35 PM,75.2,68.0,78,30.08,10.0,NE,6.9,-,N/A,,Clear,50,2013-09-13 04:35:00
11:55 PM,75.2,68.0,78,30.09,10.0,NE,6.9,-,N/A,,Clear,50,2013-09-13 04:55:00